Flag for Germany Weather past 2 weeks in Bingen am Rhein, Rhineland-Palatinate, Germany

Now
30 °F

Passing clouds.


Feels Like: 22 °F
Forecast: 32 / 38 °F
Wind: 9 mph from Northwest

Location: Hahn

Current Time: Feb 1, 2015 at 11:52:42 PM

Latest Report: Feb 1, 2015 at 11:20 PM


Visibility: 4 mi

Pressure: 29.36 "Hg

Humidity: 100%

Dew point: 30 °F

Location of Bingen am RheinLocation

Historic Weather in Bingen am Rhein — Graph

°F

Bingen am Rhein temperature yesterday

Maximum temperature yesterday: 32 °F (at 12:20 PM)
Minimum temperature yesterday: 28 °F (at 12:20 AM)
Average temperature yesterday: 30 °F

Past Weeks' High & Low Weather Summary

 TemperatureHumidityPressure
High37 °F (Jan 28, 8:20 PM)100% (Jan 18, 8:50 PM)30.39 "Hg (Jan 18, 8:50 PM)
Low23 °F (Jan 20, 9:50 PM)65% (Jan 18, 1:50 PM)28.68 "Hg (Jan 30, 12:20 AM)
Average30 °F95%29.74 "Hg
* Reported Jan 17 10:20 PM — Feb 1 10:50 PM, Bingen am Rhein, Weather by CustomWeather, © 2014

Note: Actual official high and low records may vary slightly from our data, if they occured in-between our weather recording intervals... More about our weather records

Advertising

Bingen am Rhein weather history for previous 24 hours

 ConditionsComfort  
Time TempWeatherWind HumidityBarometerVisibility
10:50 PM
Feb 1
30 °FIce fog.8 mph100%29.36 "Hg3 mi
10:20 PM30 °FLight snow. Ice fog.10 mph100%29.36 "Hg1 mi
10:04 PM30 °FSnow. Ice fog.10 mph100%29.33 "Hg1 mi
9:50 PM30 °FSnow. Ice fog.9 mph100%29.33 "Hg1 mi
9:20 PM30 °FSnow. Ice fog.9 mph100%29.33 "Hg1 mi
8:50 PM30 °FSnow. Ice fog.8 mph100%29.30 "Hg1 mi
8:20 PM32 °FLight snow. Passing clouds.10 mph93%29.30 "Hg3 mi
7:50 PM32 °FLight snow. Passing clouds.9 mph93%29.30 "Hg3 mi
7:20 PM32 °FSnow. Ice fog.8 mph93%29.27 "Hg2 mi
6:50 PM32 °FLight snow. Ice fog.12 mph93%29.27 "Hg2 mi
6:20 PM32 °FLight snow. Passing clouds.9 mph93%29.27 "Hg5 mi
5:50 PM32 °FPassing clouds.13 mph93%29.27 "HgN/A
5:20 PM32 °FPartly sunny.13 mph93%29.27 "HgN/A
4:50 PM32 °FLight snow. Partly sunny.12 mph93%29.27 "HgN/A
4:20 PM32 °FLight snow. Ice fog.13 mph93%29.27 "Hg2 mi
3:50 PM32 °FPartly sunny.13 mph93%29.24 "Hg5 mi
3:20 PM32 °FPartly sunny.12 mph93%29.24 "HgN/A
2:50 PM32 °FLight snow. Partly sunny.14 mph93%29.24 "HgN/A
2:20 PM32 °FPartly sunny.13 mph93%29.24 "HgN/A
1:50 PM32 °FLight snow. Partly sunny.12 mph93%29.24 "Hg5 mi
1:20 PM32 °FPartly sunny.13 mph93%29.24 "Hg5 mi
12:50 PM30 °FLight snow. Partly sunny.14 mph100%29.21 "Hg4 mi
12:20 PM30 °FLight snow. Partly sunny.13 mph100%29.21 "Hg4 mi
11:56 AM30 °FLight snow. Partly sunny.10 mph100%29.21 "Hg4 mi
11:50 AM30 °FLight snow. Ice fog.9 mph100%29.21 "Hg3 mi
11:20 AM30 °FLight snow. Ice fog.8 mph93%29.21 "Hg1 mi
10:55 AM30 °FLight snow. Ice fog.7 mph93%29.21 "Hg2 mi
10:20 AM28 °FLight snow. Ice fog.7 mph100%29.18 "Hg3 mi
9:50 AM28 °FLight snow. Broken clouds.7 mph100%29.18 "Hg5 mi
9:20 AM28 °FLight snow. Partly sunny.6 mph93%29.18 "Hg5 mi
8:50 AM27 °FPassing clouds.7 mph100%29.18 "HgN/A
8:20 AM28 °FBroken clouds.7 mph93%29.15 "Hg5 mi
7:50 AM28 °FPassing clouds.7 mph93%29.15 "Hg4 mi
7:20 AM28 °FPassing clouds.6 mph93%29.15 "Hg4 mi
6:50 AM27 °FPartly cloudy.5 mph100%29.15 "Hg4 mi
6:20 AM27 °FIce fog.7 mph100%29.12 "Hg1 mi
5:50 AM28 °FLight snow. Ice fog.7 mph93%29.12 "Hg1 mi
5:20 AM28 °FLight snow. Ice fog.6 mph100%29.12 "Hg2 mi
4:50 AM28 °FIce fog.6 mph100%29.12 "Hg1 mi
4:20 AM28 °FIce fog.7 mph100%29.09 "Hg2 mi
3:50 AM28 °FIce fog.7 mph100%29.09 "Hg1 mi
3:20 AM28 °FIce fog.7 mph100%29.09 "Hg1 mi
2:50 AM28 °FIce fog.7 mph100%29.09 "Hg1 mi
2:20 AM28 °FLight snow. Ice fog.5 mph100%29.09 "Hg1 mi
2:00 AM28 °FLight snow. Ice fog.3 mph100%29.09 "Hg1 mi
1:54 AM28 °FLight snow. Ice fog.3 mph100%29.06 "Hg1 mi
1:20 AM28 °FLight snow. Ice fog.1 mph100%29.06 "Hg1 mi
12:50 AM28 °FLight snow. Ice fog.1 mph100%29.06 "Hg1 mi
12:20 AM28 °FLight snow. Ice fog.3 mph100%29.06 "Hg1 mi
11:50 PM
Jan 31
28 °FLight snow. Ice fog.6 mph100%29.06 "Hg1 mi
11:20 PM28 °FLight snow. Ice fog.7 mph100%29.06 "Hg2 mi
Weather by CustomWeather, © 2014

See weather overviewHow to use our weather pages